Location: Ferchesar
(52.6477°N, 12.4298°E)
Time: 15:57:34
(UTC+01:00)

Tiros 1 - Pass Details

Date: 09 December 2021
Orbit: 629 x 664 km, 48.4° (Epoch: 22 January)

Event Time Altitude Azimuth Distance (km) Brightness Sun altitude
Rises 21:56:53 0° 276° (W) 2,940 - -51.8°
Reaches altitude 10° 21:59:32 10° 263° (W) 2,035 - -52.1°
Maximum altitude 22:03:17 24° 210° (SSW) 1,332 - -52.5°
Drops below altitude 10° 22:07:03 10° 156° (SSE) 2,046 - -53.0°
Sets 22:09:45 0° 143° (SE) 2,961 - -53.3°
